Location: ??????????
(48.5701°N, 37.7703°E)
Time: 19:31:23
(UTC+00:00)

Cosmos 1570 Rocket - Pass Details

Date: 14 July 2020
Orbit: 763 x 788 km, 74.1° (Epoch: 11 August)

Event Time Altitude Azimuth Distance (km) Brightness Sun altitude
Rises 00:55:09 0° 336° (NNW) 3,247 7.5 -6.8°
Reaches altitude 10° 00:57:32 10° 336° (NNW) 2,319 6.8 -6.5°
Maximum altitude 01:02:48 83° 250° (WSW) 784 4.0 -5.9°
Drops below altitude 10° 01:08:04 10° 162° (SSE) 2,318 6.3 -5.2°
Sets 01:10:27 0° 162° (SSE) 3,246 7.0 -4.9°
